RH
76 90 80 77 76 77 79 85 92 98 98 97 71 60 72 57 50 54 61 79 90 90 91 96 93 93 92 91 89 90 90 94 90 84 81 90 86 92 94 85 85 92 86
71 90 83 80 80 77 78 79 87 91 98 90 78 56 62 77 64 52 59 77 82 87 93 90 91 90 90 92 90 85 88 70 68 73 74 88 85 93 93 86 89 92 87
80 85 87 83 80 79 79 76 87 88 90 85 77 64 56 69 89 93 86 91 85 90 95 94 93 92 92 92 89 87 86 75 75 71 83 88 90 94 91 89 94 90 86
89 89 86 84 82 80 77 79 87 87 84 81 83 67 54 77 90 91 91 88 88 90 93 96 96 96 93 92 89 86 80 72 74 75 75 84 86 85 89 94 90 85 86
91 92 90 82 81 80 78 82 87 87 81 81 85 74 59 77 90 92 90 93 90 87 69 66 94 96 88 72 75 75 74 70 64 73 81 79 85 88 92 87 88 89 88
91 84 82 83 80 77 79 81 84 83 82 80 85 65 66 77 90 91 89 89 83 74 54 69 83 73 61 64 71 71 72 76 70 69 74 82 87 96 95 92 98 90 87
88 87 89 87 80 79 78 81 84 86 87 85 82 61 62 70 88 87 88 89 78 66 57 55 64 69 53 61 66 70 71 70 74 70 72 79 86 93 94 95 98 94 90
90 89 87 86 82 80 82 82 83 86 85 81 79 60 81 85 74 85 88 88 82 75 67 60 55 66 51 54 63 66 72 74 75 75 72 77 77 90 90 92 98 98 94
79 91 91 86 82 81 84 84 84 85 86 84 77 69 84 90 77 85 86 88 86 84 76 63 59 61 50 46 60 64 68 72 71 70 72 77 79 89 90 94 96 96 96
46 78 86 93 88 85 86 86 82 84 84 86 79 77 83 83 87 78 88 87 89 90 83 70 61 60 49 45 50 64 65 67 74 70 71 74 81 93 93 94 95 96 92
30 33 57 73 85 93 89 87 84 84 85 86 84 78 82 79 85 84 90 89 89 85 85 80 71 59 48 44 50 63 64 64 70 69 72 70 84 91 93 90 92 88 76
30 30 30 37 57 76 91 91 89 84 86 87 87 81 82 80 81 80 89 89 86 83 81 82 77 61 52 43 44 64 64 66 70 66 66 60 83 93 88 73 69 65 66
27 28 29 31 32 46 67 89 93 93 88 87 88 88 79 79 88 83 87 97 91 87 82 85 80 62 54 44 41 58 59 63 71 64 66 60 73 93 86 65 60 59 61
27 27 27 29 32 30 38 66 83 92 92 88 88 92 87 81 88 90 85 88 95 88 81 78 72 61 61 65 50 51 56 57 65 62 65 63 58 90 86 64 58 58 60
26 26 25 26 29 29 30 33 60 78 92 93 89 90 91 89 86 87 85 92 90 92 84 75 66 64 60 72 65 52 53 54 63 62 63 65 52 59 73 78 64 60 62
24 24 24 27 26 29 29 28 30 50 75 90 94 91 87 92 89 88 86 90 91 90 87 78 69 67 56 69 72 60 52 53 56 58 63 65 63 52 57 67 79 68 68
18 18 20 22 25 28 28 29 28 30 46 66 91 95 92 89 90 90 89 90 89 88 86 80 76 71 69 65 66 58 54 51 54 56 61 62 67 67 56 58 67 95 94
18 21 23 24 25 26 27 27 26 27 29 38 59 89 94 93 87 88 90 90 88 87 87 80 76 70 70 66 63 58 54 53 52 54 58 60 64 67 68 65 57 61 79
26 27 29 30 30 30 30 30 28 27 28 30 36 57 86 94 92 88 90 90 90 88 86 80 82 67 63 60 61 58 56 56 56 55 55 57 60 63 68 70 70 71 63
28 31 32 33 35 34 34 36 36 33 29 30 31 37 55 82 95 93 94 90 89 90 87 79 78 64 62 59 57 58 56 56 56 56 57 56 58 62 67 70 72 74 75
38 40 37 37 37 39 40 40 38 39 37 32 32 32 40 65 80 96 96 93 91 92 88 81 76 63 61 60 54 61 58 56 57 57 58 60 61 63 66 69 70 71 72
46 46 46 46 45 42 44 46 45 41 40 39 34 30 31 43 75 80 94 100 99 95 92 85 83 69 62 56 58 64 81 65 59 59 58 60 62 64 66 68 70 70 72
53 54 55 56 57 56 48 48 49 49 44 44 40 36 33 30 43 82 87 96 100 100 97 88 88 76 67 60 54 59 87 86 73 60 62 62 62 65 68 69 71 71 71
62 62 61 62 64 59 60 54 54 55 56 50 46 41 37 35 36 36 80 86 97 100 100 95 90 87 73 67 62 59 54 59 84 82 67 62 63 65 68 70 70 70 71
70 69 71 74 76 75 68 61 58 59 58 54 49 43 40 41 38 43 48 77 80 93 90 96 96 90 84 73 67 64 62 63 65 81 91 82 70 68 66 68 69 68 66
72 71 75 84 84 88 78 68 60 62 64 63 57 50 44 36 41 41 50 60 72 77 85 89 84 91 90 78 72 68 62 62 65 82 90 89 81 71 66 68 68 66 66
Wind_Speed
5 7 11 13 13 12 11 10 10 12 11 10 10 11 12 12 13 13 11 11 10 10 12 16 15 15 16 17 18 17 18 19 19 18 17 19 18 17 18 19 18 20 19
3 5 11 13 13 11 10 10 10 9 11 8 8 11 12 12 12 11 9 8 7 7 17 15 15 15 16 16 17 18 19 20 18 17 16 18 16 16 16 17 18 19 18
4 3 13 13 13 11 10 11 11 8 9 7 6 10 11 12 10 7 6 6 10 18 17 16 15 15 15 16 16 18 17 20 18 16 17 17 17 16 15 15 18 18 16
3 8 12 14 13 11 10 12 12 9 9 6 4 9 10 11 10 10 13 14 18 18 15 15 15 15 14 16 15 14 14 14 14 11 12 12 14 12 13 16 15 16 16
4 10 10 12 13 11 11 11 13 11 9 6 3 7 9 11 11 12 14 16 16 12 13 14 14 14 14 16 15 14 11 11 10 12 12 14 13 13 12 13 13 15 15
8 10 9 11 12 11 11 11 12 11 10 7 3 7 9 9 9 11 13 14 12 11 11 13 13 13 14 17 15 11 11 10 11 11 10 12 11 13 14 12 12 14 13
9 9 11 8 11 11 10 10 11 11 11 8 6 7 9 9 9 8 11 12 12 11 11 11 12 12 14 16 15 10 7 7 11 10 8 11 11 10 10 10 12 12 12
11 8 10 8 9 10 10 10 10 10 9 8 7 8 10 9 10 8 10 11 11 11 10 10 11 12 13 16 14 9 9 12 10 8 8 10 7 8 9 10 10 10 10
10 10 10 8 8 9 10 10 9 9 9 8 8 10 10 10 11 10 10 11 10 10 9 9 10 10 12 14 14 12 10 9 7 5 8 10 9 8 7 7 7 8 8
10 9 11 8 7 8 10 11 11 10 10 9 10 11 10 11 11 12 12 13 12 10 9 8 9 9 10 12 15 13 12 12 10 6 5 7 6 5 5 6 5 6 6
8 8 6 10 11 6 8 10 12 13 12 11 11 13 13 12 12 13 14 14 13 11 10 8 10 9 10 12 15 15 13 11 7 9 5 6 8 6 5 5 3 3 3
5 3 4 3 4 7 7 10 12 15 15 15 15 15 16 15 15 13 16 16 16 13 13 12 10 10 10 12 15 16 13 9 8 9 5 7 10 7 6 5 4 3 3
7 8 6 6 6 4 5 8 11 14 18 19 18 18 19 18 17 16 18 17 17 16 17 16 13 13 11 12 14 15 12 8 11 9 7 7 9 9 7 6 5 4 3
10 12 14 12 12 9 8 9 10 14 17 21 22 21 21 21 21 22 22 23 21 20 19 19 17 15 14 12 11 16 13 8 14 11 9 7 10 10 9 7 6 5 4
16 16 18 17 16 16 14 12 13 11 17 20 23 26 24 23 25 26 26 26 24 22 21 21 19 18 18 17 14 12 13 9 14 14 11 8 11 11 10 9 8 7 7
17 19 17 17 19 19 20 19 18 17 15 18 22 28 29 27 27 27 30 28 27 25 24 23 21 19 20 20 19 20 15 14 15 14 13 12 11 13 13 12 11 11 10
20 18 19 20 17 18 21 24 24 22 20 17 22 25 28 31 31 30 30 31 30 28 25 25 23 21 20 20 20 20 20 20 17 17 15 14 14 13 14 14 13 13 12
23 20 19 20 22 23 24 25 27 27 26 25 21 24 27 30 34 35 33 33 32 31 29 28 28 28 27 26 24 23 22 21 21 20 18 18 16 15 14 15 16 15 15
11 15 19 20 21 24 25 27 26 26 29 30 28 24 27 30 33 35 36 35 34 33 33 31 30 32 29 25 26 24 23 23 22 22 24 22 20 19 18 15 14 14 16
17 18 19 22 23 23 24 24 27 31 33 30 33 30 28 29 34 35 36 38 36 37 36 33 30 32 31 28 25 27 25 23 24 24 24 25 24 23 21 19 17 17 17
15 15 20 24 25 26 26 27 29 30 32 35 34 35 30 30 31 35 36 38 39 37 36 34 30 33 30 28 23 22 25 25 25 27 26 26 25 27 24 23 23 21 21
21 20 21 23 29 30 29 29 28 27 28 33 36 38 37 31 30 33 37 35 37 38 33 35 32 27 30 31 19 6 3 14 27 30 29 29 30 28 28 27 26 24 22
27 27 26 28 27 27 33 31 30 30 30 30 30 35 38 39 36 33 35 36 34 35 33 35 34 30 26 32 34 13 2 5 4 24 32 33 33 32 32 29 30 28 24
25 29 34 34 32 34 28 34 33 27 25 27 28 29 34 35 37 41 34 37 37 36 33 34 35 33 29 25 30 34 22 7 4 2 21 34 37 36 34 32 30 29 27
30 29 28 29 30 32 32 32 35 32 30 33 33 34 28 30 36 35 38 35 39 36 36 37 34 34 36 29 31 29 29 20 12 3 3 6 28 36 38 34 32 30 29
28 26 26 26 28 30 31 33 36 33 31 28 31 32 34 34 28 33 34 36 35 37 38 36 38 38 34 34 30 31 28 25 22 8 3 5 11 21 35 34 33 32 30
Wind_Direction
21 185 172 167 162 150 150 142 127 126 117 105 91 90 95 102 109 109 109 108 105 119 120 100 96 93 91 91 92 92 96 99 97 99 98 93 89 83 80 87 78 73 70
327 187 184 174 170 168 159 155 137 134 125 113 98 100 105 105 104 105 108 106 113 110 113 105 101 98 96 96 98 97 100 92 90 92 94 91 88 80 81 83 80 75 72
357 245 183 178 170 174 173 160 148 144 133 120 108 110 116 112 101 90 122 105 113 121 108 105 104 101 100 102 102 106 107 97 89 78 81 88 82 79 78 87 81 75 72
346 188 182 176 175 175 171 162 156 156 135 132 126 120 127 121 102 95 113 113 119 118 114 109 108 106 104 108 111 111 111 97 96 100 89 85 82 78 84 80 82 75 74
97 164 171 181 178 175 172 169 164 160 147 149 142 126 137 133 112 121 118 122 124 117 109 111 111 110 109 118 116 113 102 96 98 108 95 93 94 88 87 81 76 77 74
80 160 186 182 179 173 171 173 169 163 165 178 165 140 143 143 126 132 133 133 127 122 118 117 117 116 114 122 121 109 93 90 112 111 106 112 92 85 82 82 89 80 75
80 130 171 173 180 177 175 176 170 172 184 189 179 161 154 156 147 144 146 146 134 128 127 124 123 122 122 132 131 119 90 99 120 120 101 103 103 95 91 93 80 83 79
83 98 153 165 184 190 183 184 186 189 199 202 195 175 163 160 168 164 161 158 146 137 133 132 133 134 131 141 140 129 85 120 122 126 111 110 125 103 97 102 91 86 81
83 108 122 159 179 194 199 195 199 199 205 207 202 184 184 187 177 181 171 170 160 150 146 144 144 146 142 146 150 138 112 129 127 126 134 134 109 110 103 103 96 86 87
56 100 105 133 174 201 205 210 211 211 210 212 203 194 194 189 189 191 181 177 172 171 164 163 161 158 156 153 157 147 127 129 154 155 133 144 124 123 112 102 95 90 88
37 41 94 121 126 187 222 225 224 219 216 216 210 205 200 196 204 199 192 187 186 185 181 182 177 174 167 161 160 155 146 146 157 185 170 162 156 142 144 143 128 103 85
335 0 6 345 172 159 174 227 227 228 223 218 215 210 210 208 199 212 201 198 196 193 189 192 196 187 182 173 168 166 167 170 179 185 208 196 171 172 176 175 176 164 146
291 285 287 301 292 214 186 191 221 230 230 226 221 216 214 212 212 206 209 204 201 197 194 197 200 198 192 187 180 176 174 174 184 203 218 221 189 185 194 198 200 198 191
290 282 281 281 283 276 252 218 216 233 234 228 226 221 218 212 209 218 209 206 209 206 203 204 207 205 198 186 185 188 185 200 200 217 228 246 211 198 205 213 216 224 223
279 285 285 284 273 271 269 256 235 230 233 235 230 224 222 215 210 215 215 212 211 213 212 212 213 210 208 207 205 202 201 209 203 216 222 238 229 221 217 221 227 234 242
271 276 283 280 278 271 268 264 257 242 235 238 236 231 224 221 216 215 214 216 218 217 220 218 215 213 212 213 223 217 215 215 212 222 220 230 231 233 230 229 232 237 242
265 268 272 273 271 271 268 264 258 254 245 241 236 236 233 225 221 219 218 220 222 220 218 219 219 218 215 213 223 222 225 215 217 225 225 230 233 240 238 240 241 242 248
259 262 272 274 274 271 269 266 264 258 253 248 244 238 233 232 228 226 224 224 222 223 217 218 220 219 223 224 218 223 223 220 226 228 233 235 237 243 241 245 246 249 252
251 271 278 277 272 270 267 263 263 263 257 251 248 246 238 231 229 228 228 226 223 220 217 220 226 220 217 219 219 224 224 223 224 226 230 236 240 241 241 249 248 254 253
272 265 269 277 277 270 267 266 265 262 260 256 250 248 247 241 233 229 227 227 222 217 219 221 226 215 220 220 222 225 227 229 228 229 230 231 238 242 241 246 248 248 249
337 303 274 273 276 274 267 264 263 260 260 258 252 248 247 246 243 233 230 228 224 214 215 219 222 215 217 221 220 227 228 233 236 232 233 236 235 236 241 248 253 255 254
323 314 307 296 277 268 264 261 258 261 262 261 260 253 249 245 244 241 232 224 219 219 219 219 219 214 216 214 208 186 242 241 238 232 234 234 238 239 241 246 248 254 256
314 309 301 293 290 286 263 259 255 256 259 257 255 255 251 249 243 243 240 231 222 218 220 220 218 212 207 210 212 190 176 224 195 229 232 233 238 238 240 244 247 250 254
302 300 296 293 286 279 276 255 245 240 245 248 252 257 254 249 248 244 244 239 232 224 221 220 216 218 213 202 211 214 220 189 190 263 229 235 236 237 237 240 242 244 247
298 292 292 289 286 281 271 258 244 239 242 250 253 253 254 251 245 245 244 246 243 234 234 224 220 217 217 214 207 216 222 226 224 160 231 229 235 239 241 240 241 245 247
289 285 286 289 282 276 264 256 244 236 239 243 249 250 252 249 248 243 244 243 248 248 242 240 237 221 218 216 216 213 216 220 229 205 192 224 218 229 236 236 239 244 248